Spokane Fairchild, WA

1:09 AM PDT on June 26, 2017 (GMT -0700)
Fairchild Air Force Base

Weather History for KSKA - November, 2011

Change the Weather History Date:

Sunday, November 20, 2011

  Actual Average Record
Temperature  
Mean Temperature 24 °F -  
Max Temperature 27 °F 39 °F 57 °F (2002)
Min Temperature 22 °F 27 °F 19 °F (2013)
Degree Days  
Heating Degree Days 40    
Moisture  
Dew Point 24 °F    
Average Humidity 100    
Maximum Humidity 100    
Minimum Humidity 100    
Precipitation  
Precipitation 0.00 in - - ()
Sea Level Pressure  
Sea Level Pressure 29.98 in    
Wind  
Wind Speed 4 mph (NE)    
Max Wind Speed 9 mph    
Max Gust Speed -    
Visibility 7 miles    
Events Fog , Rain    
Averages and records for this station are not official NWS values.
T = Trace of Precipitation, MM = Missing Value Source: NWS Daily Summary

Daily Weather History Graph

Daily Weather History Graph

Search for Another Location

Airport or City:

Trip Planner

Search our weather history database for the weather conditions in past years. The results will help you decide how hot, cold, wet, or windy it might be!

Date:

Astronomy

Nov. 20, 2011 Rise Set
Actual Time 7:02 AM PST 4:09 PM PST
Civil Twilight 6:28 AM PST 4:43 PM PST
Nautical Twilight 5:50 AM PST 5:21 PM PST
Astronomical Twilight 5:14 AM PST 5:57 PM PST
Moon 1:16 AM PST (11/20) 1:18 PM PST (11/20)
Length of Visible Light 10h 14m
Length of Day
9h 06m
Waning Crescent, 26% of the Moon is Illuminated
Nov 20
Waning Crescent
Nov 24
New
Dec 2
First Quarter
Dec 10
Full
Dec 17
Last Quarter

Hourly Weather History & Observations

Time (PST) Temp. Windchill Dew Point Humidity Pressure Visibility Wind Dir Wind Speed Gust Speed Precip Events Conditions
12:09 AM 23.0 °F 18.4 °F 23.0 °F 100% 29.97 in 10.0 mi NE 3.5 mph - N/A   Overcast
12:15 AM 23.0 °F 18.4 °F 23.0 °F 100% 29.98 in 10.0 mi NE 3.5 mph - N/A   Overcast
12:33 AM 23.0 °F 17.0 °F 23.0 °F 100% 29.98 in 10.0 mi ENE 4.6 mph - N/A   Overcast
12:42 AM 23.0 °F 18.4 °F 23.0 °F 100% 29.97 in 10.0 mi ENE 3.5 mph - N/A   Overcast
12:51 AM 23.0 °F 17.0 °F 23.0 °F 100% 29.97 in 8.0 mi ENE 4.6 mph - N/A   Overcast
12:54 AM 23.0 °F 17.0 °F 23.0 °F 100% 29.97 in 8.0 mi ENE 4.6 mph - N/A   Overcast
1:00 AM 23.0 °F 17.0 °F 23.0 °F 100% 29.97 in 5.0 mi NE 4.6 mph - N/A   Overcast
1:08 AM 23.0 °F 17.0 °F 23.0 °F 100% 29.97 in 3.0 mi ENE 4.6 mph - N/A   Overcast
1:11 AM 23.0 °F 17.0 °F 23.0 °F 100% 29.97 in 3.0 mi NE 4.6 mph - N/A   Overcast
1:23 AM 23.0 °F 18.4 °F 23.0 °F 100% 29.97 in 4.0 mi NE 3.5 mph - N/A   Overcast
1:32 AM 23.0 °F 18.4 °F 23.0 °F 100% 29.97 in 4.0 mi NE 3.5 mph - N/A   Overcast
1:45 AM 23.0 °F 17.0 °F 23.0 °F 100% 29.97 in 4.0 mi East 4.6 mph - N/A   Overcast
1:55 AM 22.3 °F 16.1 °F 22.3 °F 100% 29.97 in 4.0 mi ENE 4.6 mph - 0.00 in   Overcast
2:00 AM 23.0 °F 15.8 °F 23.0 °F 100% 29.97 in 4.0 mi NE 5.8 mph - N/A   Overcast
2:34 AM 23.0 °F 17.0 °F 23.0 °F 100% 29.97 in 6.0 mi ENE 4.6 mph - N/A   Overcast
2:44 AM 23.0 °F 17.0 °F 23.0 °F 100% 29.97 in 5.0 mi East 4.6 mph - N/A   Overcast
2:55 AM 22.3 °F 16.1 °F 22.3 °F 100% 29.96 in 2.5 mi ENE 4.6 mph - 0.00 in   Overcast
2:59 AM 23.0 °F 17.0 °F 23.0 °F 100% 29.96 in 1.8 mi ENE 4.6 mph - N/A   Overcast
3:01 AM 23.0 °F 17.0 °F 23.0 °F 100% 29.96 in 1.2 mi ENE 4.6 mph - N/A   Overcast
3:06 AM 23.0 °F 18.4 °F 23.0 °F 100% 29.96 in 0.8 mi ENE 3.5 mph - N/A   Overcast
3:07 AM 23.0 °F 18.4 °F 23.0 °F 100% 29.96 in 0.8 mi ENE 3.5 mph - N/A   Overcast
3:17 AM 23.0 °F 18.4 °F 23.0 °F 100% 29.97 in 0.5 mi ENE 3.5 mph - N/A Fog Light Freezing Fog
3:23 AM 23.0 °F 18.4 °F 23.0 °F 100% 29.96 in 0.5 mi NE 3.5 mph - N/A Fog , Rain Light Freezing Rain
3:25 AM 23.0 °F 18.4 °F 23.0 °F 100% 29.96 in 0.5 mi NE 3.5 mph - N/A Fog , Rain Light Freezing Rain
3:55 AM 22.6 °F 18.0 °F 22.6 °F 100% 29.96 in 0.5 mi NE 3.5 mph - 0.00 in Fog Light Freezing Fog
4:18 AM 23.0 °F 18.4 °F 23.0 °F 100% 29.96 in 0.5 mi NE 3.5 mph - N/A Fog Light Freezing Fog
4:28 AM 23.0 °F 18.4 °F 23.0 °F 100% 29.96 in 0.5 mi NNE 3.5 mph - N/A Fog Light Freezing Fog
4:31 AM 23.0 °F 18.4 °F 23.0 °F 100% 29.96 in 0.8 mi NNE 3.5 mph - N/A   Mist
4:34 AM 23.0 °F 18.4 °F 23.0 °F 100% 29.97 in 0.8 mi NNE 3.5 mph - N/A   Mist
4:38 AM 23.0 °F 18.4 °F 23.0 °F 100% 29.96 in 0.8 mi NNE 3.5 mph - N/A   Mist
4:39 AM 23.0 °F 18.4 °F 23.0 °F 100% 29.96 in 1.0 mi NNE 3.5 mph - N/A   Mist
4:40 AM 23.0 °F 18.4 °F 23.0 °F 100% 29.96 in 1.0 mi NNE 3.5 mph - N/A   Mist
4:43 AM 23.0 °F 17.0 °F 23.0 °F 100% 29.96 in 1.2 mi NNE 4.6 mph - N/A   Overcast
4:46 AM 23.0 °F 17.0 °F 23.0 °F 100% 29.96 in 1.2 mi NNE 4.6 mph - N/A   Overcast
4:47 AM 23.0 °F 17.0 °F 23.0 °F 100% 29.96 in 1.5 mi NNE 4.6 mph - N/A   Overcast
4:52 AM 23.0 °F 18.4 °F 23.0 °F 100% 29.96 in 1.8 mi NE 3.5 mph - N/A   Overcast
4:54 AM 23.0 °F 18.4 °F 23.0 °F 100% 29.96 in 2.0 mi NE 3.5 mph - N/A   Overcast
5:00 AM 23.0 °F - 23.0 °F 100% 29.96 in 3.0 mi Calm Calm - N/A   Overcast
5:07 AM 23.0 °F 17.0 °F 23.0 °F 100% 29.96 in 2.5 mi NNE 4.6 mph - N/A   Overcast
5:09 AM 23.0 °F 18.4 °F 23.0 °F 100% 29.96 in 2.5 mi NNE 3.5 mph - N/A   Overcast
5:15 AM 23.0 °F 17.0 °F 23.0 °F 100% 29.97 in 2.5 mi NNE 4.6 mph - N/A   Overcast
5:17 AM 23.0 °F 17.0 °F 23.0 °F 100% 29.97 in 3.0 mi NNE 4.6 mph - N/A   Overcast
5:37 AM 23.0 °F 17.0 °F 23.0 °F 100% 29.97 in 5.0 mi North 4.6 mph - N/A   Overcast
5:55 AM 22.1 °F 15.9 °F 22.1 °F 100% 29.99 in 7.0 mi North 4.6 mph - N/A   Overcast
6:14 AM 23.0 °F 15.8 °F 23.0 °F 100% 29.99 in 10.0 mi North 5.8 mph - N/A   Overcast
6:16 AM 23.0 °F 15.8 °F 23.0 °F 100% 29.99 in 10.0 mi North 5.8 mph - N/A   Overcast
6:20 AM 23.0 °F 17.0 °F 23.0 °F 100% 29.99 in 10.0 mi North 4.6 mph - N/A   Overcast
6:29 AM 23.0 °F 18.4 °F 23.0 °F 100% 29.99 in 10.0 mi North 3.5 mph - N/A   Overcast
6:55 AM 22.1 °F 14.7 °F 22.1 °F 100% 30.00 in 10.0 mi North 5.8 mph - 0.00 in   Overcast
7:33 AM 23.0 °F 14.7 °F 23.0 °F 100% 29.99 in 10.0 mi North 6.9 mph - N/A   Overcast
7:40 AM 23.0 °F 13.9 °F 23.0 °F 100% 29.99 in 10.0 mi North 8.1 mph - N/A   Overcast
7:55 AM 22.3 °F 14.9 °F 22.3 °F 100% 29.99 in 10.0 mi North 5.8 mph - N/A   Overcast
8:23 AM 23.0 °F 15.8 °F 23.0 °F 100% 30.01 in 10.0 mi NNE 5.8 mph - N/A   Overcast
8:25 AM 23.0 °F 15.8 °F 23.0 °F 100% 30.01 in 10.0 mi NNE 5.8 mph - N/A   Overcast
8:35 AM 23.0 °F 15.8 °F 23.0 °F 100% 30.01 in 10.0 mi NNE 5.8 mph - N/A   Overcast
8:45 AM 23.0 °F 15.8 °F 23.0 °F 100% 30.01 in 10.0 mi NNE 5.8 mph - N/A   Overcast
8:55 AM 22.8 °F 13.6 °F 22.8 °F 100% 30.01 in 10.0 mi NNE 8.1 mph - 0.00 in   Overcast
9:02 AM 23.0 °F 14.7 °F 23.0 °F 100% 30.01 in 10.0 mi NNE 6.9 mph - N/A   Overcast
9:22 AM 23.0 °F 14.7 °F 23.0 °F 100% 30.01 in 10.0 mi NE 6.9 mph - N/A   Overcast
9:29 AM 23.0 °F 15.8 °F 23.0 °F 100% 30.02 in 10.0 mi NE 5.8 mph - N/A   Overcast
9:40 AM 23.0 °F 15.8 °F 23.0 °F 100% 30.02 in 10.0 mi NE 5.8 mph - N/A   Overcast
9:55 AM 23.9 °F 15.8 °F 23.9 °F 100% 30.02 in 10.0 mi NE 6.9 mph - N/A   Overcast
10:30 AM 24.8 °F 19.1 °F 24.8 °F 100% 30.04 in 10.0 mi NE 4.6 mph - N/A   Overcast
10:55 AM 25.3 °F 18.5 °F 25.3 °F 100% 30.02 in 10.0 mi NNE 5.8 mph - N/A   Overcast
10:56 AM 24.8 °F 16.9 °F 24.8 °F 100% 30.02 in 10.0 mi NNE 6.9 mph - N/A   Overcast
11:11 AM 24.8 °F 15.3 °F 24.8 °F 100% 30.02 in 10.0 mi NNE 9.2 mph - N/A   Overcast
11:13 AM 24.8 °F 16.1 °F 24.8 °F 100% 30.02 in 10.0 mi NNE 8.1 mph - N/A   Overcast
11:54 AM 26.6 °F 20.0 °F 26.6 °F 100% 30.01 in 10.0 mi NE 5.8 mph - N/A   Overcast
11:59 AM 26.6 °F 20.0 °F 26.6 °F 100% 30.01 in 10.0 mi NE 5.8 mph - N/A   Overcast
12:01 PM 26.6 °F 20.0 °F 26.6 °F 100% 30.01 in 10.0 mi NE 5.8 mph - N/A   Overcast
12:21 PM 26.6 °F 19.1 °F 26.6 °F 100% 30.01 in 10.0 mi NNE 6.9 mph - N/A   Overcast
12:45 PM 26.6 °F 20.0 °F 26.6 °F 100% 30.01 in 10.0 mi NE 5.8 mph - N/A   Overcast
12:52 PM 26.6 °F 20.0 °F 26.6 °F 100% 30.01 in 10.0 mi NE 5.8 mph - N/A   Overcast
12:55 PM 26.6 °F 19.1 °F 26.6 °F 100% 30.01 in 10.0 mi NE 6.9 mph - 0.00 in   Overcast
1:09 PM 26.6 °F 19.1 °F 26.6 °F 100% 30.00 in 10.0 mi NE 6.9 mph - N/A   Overcast
1:55 PM 27.0 °F 19.5 °F 27.0 °F 100% 30.00 in 10.0 mi ENE 6.9 mph - 0.00 in   Overcast
2:55 PM 27.0 °F 20.5 °F 27.0 °F 100% 29.99 in 10.0 mi ENE 5.8 mph - N/A   Overcast
3:55 PM 26.8 °F 20.2 °F 26.8 °F 100% 29.99 in 10.0 mi ENE 5.8 mph - N/A   Overcast
4:36 PM 26.6 °F 21.2 °F 26.6 °F 100% 29.99 in 10.0 mi NE 4.6 mph - N/A   Overcast
4:46 PM 26.6 °F 20.0 °F 26.6 °F 100% 29.99 in 10.0 mi NE 5.8 mph - N/A   Overcast
4:55 PM 26.8 °F 21.4 °F 26.8 °F 100% 29.99 in 10.0 mi NE 4.6 mph - 0.00 in   Overcast
5:07 PM 26.6 °F 20.0 °F 26.6 °F 100% 29.98 in 10.0 mi NE 5.8 mph - N/A   Overcast
5:55 PM 26.2 °F 20.7 °F 26.2 °F 100% 29.98 in 10.0 mi ENE 4.6 mph - N/A   Overcast
6:54 PM 26.6 °F - 26.6 °F 100% 29.98 in 10.0 mi Calm Calm - N/A   Overcast
7:19 PM 26.6 °F 22.6 °F 26.6 °F 100% 29.97 in 10.0 mi ENE 3.5 mph - N/A   Overcast
7:20 PM 26.6 °F 22.6 °F 26.6 °F 100% 29.97 in 10.0 mi ENE 3.5 mph - N/A   Overcast
7:44 PM 26.6 °F 21.2 °F 26.6 °F 100% 29.98 in 10.0 mi North 4.6 mph - N/A   Overcast
7:55 PM 26.6 °F 21.2 °F 26.6 °F 100% 29.97 in 10.0 mi NNE 4.6 mph - 0.00 in   Overcast
7:56 PM 26.6 °F 21.2 °F 26.6 °F 100% 29.97 in 10.0 mi NNE 4.6 mph - N/A   Overcast
8:10 PM 26.6 °F - 26.6 °F 100% 29.98 in 10.0 mi Calm Calm - N/A   Overcast
8:55 PM 26.4 °F - 26.4 °F 100% 29.98 in 10.0 mi Calm Calm - 0.00 in   Overcast
9:07 PM 26.6 °F - 26.6 °F 100% 29.98 in 10.0 mi Calm Calm - N/A   Overcast
9:21 PM 26.6 °F - 26.6 °F 100% 29.98 in 10.0 mi Calm Calm - N/A   Overcast
9:36 PM 26.6 °F - 26.6 °F 100% 29.98 in 10.0 mi Calm Calm - N/A   Overcast
9:48 PM 26.6 °F - 26.6 °F 100% 29.97 in 10.0 mi Calm Calm - N/A   Overcast
9:55 PM 26.2 °F - 26.2 °F 100% 29.97 in 10.0 mi Calm Calm - 0.00 in   Overcast
10:39 PM 26.6 °F - 26.6 °F 100% 29.97 in 10.0 mi Calm Calm - N/A   Overcast
10:55 PM 25.9 °F - 25.9 °F 100% 29.97 in 10.0 mi Calm Calm - N/A   Overcast
11:19 PM 26.6 °F 22.6 °F 26.6 °F 100% 29.96 in 10.0 mi ESE 3.5 mph - N/A   Overcast
11:28 PM 26.6 °F 22.6 °F 26.6 °F 100% 29.96 in 10.0 mi ESE 3.5 mph - N/A   Overcast
11:34 PM 26.6 °F 22.6 °F 26.6 °F 100% 29.96 in 10.0 mi ESE 3.5 mph - N/A   Overcast
11:44 PM 26.6 °F - 26.6 °F 100% 29.96 in 10.0 mi Calm Calm - N/A   Overcast
11:50 PM 26.6 °F 22.6 °F 26.6 °F 100% 29.96 in 10.0 mi ESE 3.5 mph - N/A   Overcast
11:55 PM 25.7 °F 21.5 °F 25.7 °F 100% 29.96 in 10.0 mi ESE 3.5 mph - 0.00 in   Overcast